Fort Myers, FL

9:11 PM EST on December 03, 2016 (GMT -0500)
Page

Weather History for KFMY - November, 2013

Change the Weather History Date:

Monday, November 4, 2013

  Actual Average Record
Temperature  
Mean Temperature 71 °F 74 °F  
Max Temperature 82 °F 83 °F 92 °F (2015)
Min Temperature 59 °F 64 °F 42 °F (1966)
Degree Days  
Heating Degree Days 0 0  
Month to date heating degree days 0 0  
Since 1 July heating degree days 0 2  
Cooling Degree Days 6 9  
Month to date cooling degree days 36 37  
Year to date cooling degree days 3659 3685  
Growing Degree Days 21 (Base 50)    
Moisture  
Dew Point 57 °F    
Average Humidity 64    
Maximum Humidity 78    
Minimum Humidity 43    
Precipitation  
Precipitation 0.00 in 0.09 in 3.09 in (1998)
Month to date precipitation T 0.35  
Year to date precipitation 51.86 52.61  
Sea Level Pressure  
Sea Level Pressure 30.08 in    
Wind  
Wind Speed 11 mph (NE)    
Max Wind Speed 21 mph    
Max Gust Speed 28 mph    
Visibility 10 miles    
Events      
T = Trace of Precipitation, MM = Missing Value Source: NWS Daily Summary

Daily Weather History Graph

Daily Weather History Graph

Search for Another Location

Airport or City:

Trip Planner

Search our weather history database for the weather conditions in past years. The results will help you decide how hot, cold, wet, or windy it might be!

Date:

Astronomy

Nov. 04, 2013 Rise Set
Actual Time 6:38 AM EST 5:42 PM EST
Civil Twilight 6:14 AM EST 6:06 PM EST
Nautical Twilight 5:47 AM EST 6:34 PM EST
Astronomical Twilight 5:20 AM EST 7:01 PM EST
Moon 7:42 AM EST 6:52 PM EST
Length of Visible Light 11h 51m
Length of Day
11h 03m
New Moon, 2% of the Moon is Illuminated
Nov 4
New Moon
Nov 10
First Quarter
Nov 17
Full
Nov 25
Last Quarter
Dec 2
New

Hourly Weather History & Observations

Time (EST) Temp. Heat Index Dew Point Humidity Pressure Visibility Wind Dir Wind Speed Gust Speed Precip Events Conditions
12:53 AM 63.0 °F - 51.1 °F 65% 30.07 in 10.0 mi NNE 11.5 mph - N/A   Clear
1:53 AM 61.0 °F - 51.1 °F 70% 30.07 in 10.0 mi NE 5.8 mph - N/A   Clear
2:53 AM 60.1 °F - 52.0 °F 75% 30.06 in 10.0 mi NE 8.1 mph - N/A   Clear
3:53 AM 60.1 °F - 52.0 °F 75% 30.06 in 10.0 mi NE 8.1 mph - N/A   Clear
4:53 AM 60.1 °F - 53.1 °F 78% 30.06 in 10.0 mi NE 6.9 mph - N/A   Clear
5:53 AM 60.1 °F - 53.1 °F 78% 30.07 in 10.0 mi NE 6.9 mph - N/A   Clear
6:53 AM 60.1 °F - 53.1 °F 78% 30.09 in 10.0 mi NE 6.9 mph - N/A   Clear
7:53 AM 64.0 °F - 55.0 °F 73% 30.11 in 10.0 mi NNE 9.2 mph - N/A   Clear
8:53 AM 70.0 °F - 57.9 °F 65% 30.11 in 10.0 mi NE 8.1 mph - N/A   Clear
9:53 AM 73.0 °F - 59.0 °F 61% 30.12 in 10.0 mi ENE 9.2 mph - N/A   Overcast
10:53 AM 78.1 °F - 59.0 °F 52% 30.09 in 10.0 mi NE 15.0 mph 21.9 mph N/A   Clear
11:53 AM 79.0 °F - 57.9 °F 48% 30.08 in 10.0 mi ENE 17.3 mph 23.0 mph N/A   Scattered Clouds
12:53 PM 82.0 °F 81.7 °F 57.0 °F 42% 30.05 in 10.0 mi ENE 17.3 mph 24.2 mph N/A   Mostly Cloudy
1:53 PM 80.1 °F 80.4 °F 57.0 °F 45% 30.04 in 10.0 mi East 11.5 mph 19.6 mph N/A   Overcast
2:53 PM 79.0 °F - 60.1 °F 52% 30.05 in 10.0 mi ENE 18.4 mph 25.3 mph N/A   Overcast
3:53 PM 78.1 °F - 61.0 °F 56% 30.05 in 10.0 mi ENE 13.8 mph 21.9 mph N/A   Mostly Cloudy
4:53 PM 78.1 °F - 61.0 °F 56% 30.05 in 10.0 mi ENE 15.0 mph 19.6 mph N/A   Partly Cloudy
5:53 PM 75.0 °F - 61.0 °F 62% 30.06 in 10.0 mi ENE 11.5 mph 20.7 mph N/A   Partly Cloudy
6:53 PM 73.9 °F - 60.1 °F 62% 30.08 in 10.0 mi NE 11.5 mph - N/A   Mostly Cloudy
7:53 PM 73.0 °F - 59.0 °F 61% 30.09 in 10.0 mi NE 9.2 mph - N/A   Partly Cloudy
8:53 PM 71.1 °F - 59.0 °F 66% 30.10 in 10.0 mi NE 8.1 mph - N/A   Clear
9:53 PM 70.0 °F - 60.1 °F 71% 30.10 in 10.0 mi ENE 8.1 mph - N/A   Scattered Clouds
10:53 PM 70.0 °F - 61.0 °F 73% 30.10 in 10.0 mi NE 11.5 mph - N/A   Mostly Cloudy
11:53 PM 70.0 °F - 62.1 °F 76% 30.09 in 10.0 mi ENE 10.4 mph - N/A   Mostly Cloudy